Starlink 3238

operational
NORAD ID: 49734 Int'l Des: 2021-115 Owner: SPXS Country: US Constellation: starlink
LEOCIRCULAR

Starlink 3238について

説明を読み込み中...

リアルタイム位置

3D地球を読み込み中...

次回通過

高度履歴

Altitude vs Time

uPlot chart will show altitude changes over time

軌道要素

1 49734U 21115L 25258.26408152 -.00001177 00000-0 -55927-4 0 9997
2 49734 53.2184 216.6643 0001359 94.8484 265.2663 15.08821990209054
Epoch: Sep 15, 2025 • Age: 14 hours

現在のステータス

高度 548.6 km
速度 7.59 km/s
衛星直下点 -27.55°S, 111.22°W
打ち上げ日 Dec 2, 2021
運用期間 3.7 years
タイプ internet

技術仕様

分類 Payload
質量 290.00 kg
乾燥質量 270.00 kg
総質量 290.00 kg
長さ 0.20 m
直径 2.80 m
スパン 9.00 m
形状 Box + pan
製造者 SPXS
バスタイプ Starlink
フェーズステータス In Orbit
所有者/国 SPXS/US

大規模コンステレーション

Loading constellations...